GFSGL_925_temp_021.txt.gz
Temp
3 2 3 2 2 2 2 2 2 2 2 2 3 3 3 4 4 4 4 4 4 4 5 5 6 6 6 6 7 7 8 9 7 5 4 2 0 0 0 2 2 3 3
1 2 2 1 1 1 1 1 1 1 2 1 1 1 2 2 3 3 3 3 3 4 4 4 5 5 5 5 5 6 6 7 8 2 3 1 0 -0 0 1 1 1 0
1 1 1 1 0 0 0 0 0 0 1 1 2 1 1 1 1 2 2 2 2 3 3 4 4 4 4 5 4 4 5 5 6 4 1 0 -1 -1 -2 -1 -2 -2 -1
0 0 0 -0 -1 -1 -0 1 0 -0 -1 -0 0 0 1 1 0 1 1 1 2 2 3 3 3 3 4 3 4 4 4 4 4 3 1 -1 -2 -2 -2 -2 -3 -3 -2
0 -1 -1 -2 -2 -2 -2 -1 -1 -0 -0 -1 -1 -1 -1 -1 -0 0 -0 -0 0 1 1 2 2 2 3 3 3 3 2 3 2 2 1 -1 -2 -3 -3 -3 -2 -2 -2
0 -1 -1 -2 -3 -3 -4 -4 -4 -3 -2 -2 -2 -2 -1 -2 -2 -1 -1 -1 -1 -1 -0 1 1 1 2 2 2 3 2 3 1 1 1 1 -1 -2 -3 -3 -2 -2 -3
-1 -1 -1 -2 -3 -3 -4 -4 -5 -5 -4 -4 -3 -3 -2 -2 -2 -2 -2 -2 -1 -1 -1 -1 0 0 0 0 1 1 2 3 4 2 2 2 0 -1 -2 -2 -2 -2 -1
-2 -3 -3 -3 -3 -4 -5 -6 -6 -6 -5 -5 -5 -4 -4 -3 -2 -2 -2 -2 -2 -2 -1 -1 -1 -0 -0 -1 -1 -0 0 -0 2 2 2 3 2 0 0 -0 -2 -2 -3
-3 -3 -3 -3 -4 -5 -6 -7 -7 -7 -7 -7 -6 -6 -5 -4 -3 -3 -2 -2 -2 -2 -2 -1 -1 -1 -1 -1 -2 -1 -3 -2 -2 0 1 1 1 1 1 -2 -4 -4 -5
-4 -4 -5 -5 -6 -6 -7 -8 -8 -8 -8 -8 -7 -7 -7 -6 -5 -4 -3 -3 -3 -2 -2 -2 -2 -2 -1 -1 -2 -2 -2 -2 -3 -3 -2 -2 -2 -2 -1 -2 -3 -4 -5
-6 -7 -7 -7 -8 -8 -8 -9 -9 -10 -10 -10 -9 -9 -8 -7 -6 -4 -3 -3 -3 -2 -2 -2 -2 -2 -2 -1 -2 -3 -2 -2 -3 -4 -4 -4 -5 -5 -5 -5 -4 -4 -5
-10 -10 -10 -11 -11 -11 -11 -11 -12 -12 -11 -11 -11 -10 -9 -7 -6 -4 -4 -3 -3 -3 -3 -2 -2 -2 -2 -2 -2 -3 -3 -2 -4 -4 -6 -5 -6 -6 -7 -7 -6 -6 -5
-13 -14 -14 -15 -14 -14 -14 -14 -13 -13 -13 -12 -11 -10 -9 -8 -6 -5 -3 -3 -3 -3 -3 -3 -3 -2 -2 -2 -2 -3 -3 -3 -5 -5 -6 -5 -5 -6 -7 -7 -8 -7 -8
-17 -17 -17 -17 -17 -17 -16 -16 -15 -15 -14 -14 -13 -12 -11 -10 -8 -6 -5 -4 -4 -5 -4 -3 -3 -3 -3 -4 -3 -3 -4 -4 -5 -5 -6 -5 -6 -7 -9 -9 -10 -10 -11
-18 -18 -18 -18 -17 -17 -17 -17 -17 -17 -16 -16 -15 -14 -13 -12 -11 -10 -8 -6 -6 -6 -5 -5 -4 -3 -3 -4 -5 -5 -4 -4 -5 -5 -5 -6 -8 -9 -10 -10 -10 -11 -11
-19 -18 -18 -18 -18 -18 -17 -17 -17 -16 -15 -15 -14 -14 -13 -12 -11 -10 -9 -8 -7 -6 -5 -5 -4 -4 -4 -5 -5 -5 -5 -4 -5 -6 -6 -8 -9 -9 -10 -11 -11 -11 -11
-19 -19 -19 -19 -18 -18 -18 -17 -17 -17 -16 -16 -15 -14 -13 -13 -12 -11 -10 -9 -8 -6 -5 -4 -4 -4 -5 -5 -5 -5 -5 -6 -7 -7 -8 -9 -10 -10 -11 -11 -12 -12 -12
-20 -20 -19 -19 -18 -18 -17 -17 -17 -17 -17 -17 -16 -15 -15 -13 -12 -11 -10 -9 -7 -6 -4 -4 -4 -5 -5 -5 -5 -5 -6 -8 -8 -9 -10 -10 -11 -11 -11 -12 -12 -12 -12
-20 -20 -19 -18 -17 -17 -17 -17 -17 -16 -16 -16 -16 -15 -15 -14 -13 -11 -10 -9 -7 -5 -4 -4 -5 -5 -5 -5 -6 -7 -8 -9 -9 -10 -10 -11 -11 -11 -12 -12 -12 -13 -13
-19 -19 -19 -18 -17 -17 -16 -16 -16 -16 -15 -15 -15 -15 -14 -14 -12 -11 -9 -8 -7 -6 -5 -5 -5 -6 -6 -7 -8 -9 -9 -10 -10 -11 -11 -12 -12 -12 -13 -13 -14 -14 -14
-19 -18 -18 -18 -17 -17 -16 -16 -15 -14 -13 -13 -14 -14 -12 -11 -9 -9 -8 -8 -7 -5 -5 -6 -6 -7 -8 -8 -10 -10 -11 -11 -12 -13 -14 -14 -14 -14 -14 -14 -14 -15 -15
-19 -19 -18 -18 -17 -16 -16 -16 -15 -15 -14 -14 -13 -13 -12 -12 -12 -11 -11 -11 -8 -7 -7 -7 -8 -9 -9 -10 -11 -12 -13 -14 -14 -15 -15 -15 -15 -15 -15 -15 -15 -15 -16
-20 -19 -19 -18 -17 -17 -17 -16 -16 -16 -16 -16 -16 -16 -16 -16 -16 -16 -15 -15 -13 -12 -11 -11 -12 -12 -12 -12 -13 -13 -14 -15 -15 -14 -15 -15 -15 -15 -15 -16 -16 -16 -16
-20 -20 -20 -19 -19 -18 -17 -17 -17 -17 -17 -17 -17 -17 -17 -18 -17 -17 -17 -17 -16 -16 -15 -14 -14 -14 -14 -14 -14 -14 -14 -14 -14 -14 -14 -15 -16 -16 -16 -16 -16 -16 -16
-21 -21 -20 -20 -20 -19 -19 -18 -18 -18 -18 -18 -18 -18 -18 -18 -18 -19 -18 -18 -18 -18 -17 -17 -16 -16 -15 -15 -15 -15 -16 -15 -15 -14 -14 -15 -15 -16 -16 -16 -16 -17 -16
-21 -21 -21 -21 -20 -20 -20 -19 -19 -19 -19 -19 -19 -19 -19 -19 -19 -19 -19 -19 -19 -19 -18 -18 -17 -17 -16 -16 -15 -15 -14 -14 -14 -14 -15 -15 -16 -16 -16 -16 -17 -17 -17

GFSGL_925_temp_024.txt.gz
Temp
2 2 2 2 2 2 2 2 2 2 2 2 2 2 2 2 3 3 3 4 4 4 5 5 5 6 7 7 8 9 9 9 4 4 5 5 4 3 2 2 2 2 4
1 1 1 1 2 2 2 1 1 1 2 2 2 2 1 1 2 2 2 3 3 3 4 4 4 5 5 6 6 7 7 9 8 2 4 3 3 3 3 1 1 1 3
1 1 0 -0 -0 -0 -0 0 1 1 1 1 0 1 2 2 1 1 1 1 2 2 2 3 3 4 4 4 5 5 6 6 7 6 2 2 1 1 1 0 1 0 1
1 1 0 -0 -1 -1 -1 -1 -2 -1 -1 -0 0 -0 -0 -0 1 2 1 1 0 1 1 1 2 2 3 3 4 4 4 4 5 5 4 1 1 -1 -0 -2 -2 -1 -0
1 1 0 -0 -1 -1 -2 -2 -3 -3 -3 -3 -2 -1 -1 -1 -1 -1 0 0 -0 -1 -0 0 1 1 2 2 2 2 2 2 3 3 3 0 -0 -2 -2 -2 -2 -2 -2
1 1 0 0 -0 -1 -2 -3 -3 -3 -4 -4 -4 -4 -3 -2 -1 -2 -2 -2 -1 -1 -1 -1 -1 -0 0 1 2 2 2 2 3 3 3 1 0 -0 -1 -2 -2 -3 -3
0 -0 -1 -2 -2 -2 -3 -3 -4 -5 -5 -5 -5 -5 -5 -4 -4 -3 -2 -2 -2 -2 -2 -2 -1 -1 -1 -0 0 1 2 2 2 3 3 2 2 -0 -1 -2 -2 -0 1
-2 -2 -3 -3 -3 -3 -4 -4 -5 -6 -6 -6 -6 -6 -6 -6 -5 -4 -3 -3 -3 -3 -2 -2 -2 -2 -1 -1 -1 -1 -0 1 1 2 2 3 2 1 1 3 1 0 -1
-3 -4 -4 -4 -5 -5 -6 -6 -6 -7 -7 -8 -8 -8 -8 -7 -7 -6 -5 -5 -4 -3 -3 -3 -2 -2 -2 -1 -1 -2 -2 -1 -2 0 1 2 2 2 0 0 -2 -3 -6
-6 -6 -7 -8 -8 -9 -9 -9 -9 -9 -9 -9 -9 -9 -9 -9 -9 -8 -7 -6 -5 -4 -4 -3 -3 -2 -2 -2 -1 -1 -2 -2 -2 -3 -3 -1 0 1 0 0 -1 -2 -2
-9 -10 -11 -12 -12 -12 -12 -12 -12 -12 -12 -12 -12 -11 -11 -11 -11 -10 -9 -7 -6 -5 -4 -4 -3 -3 -2 -2 -2 -2 -1 -2 -2 -2 -3 -3 -3 -2 -2 -1 0 0 -1
-13 -14 -15 -15 -16 -16 -16 -16 -15 -15 -15 -14 -14 -13 -13 -12 -12 -11 -10 -8 -7 -5 -5 -4 -3 -3 -2 -2 -1 -1 -1 -2 -3 -3 -4 -4 -3 -3 -3 -2 -3 -2 -1
-15 -16 -17 -17 -17 -17 -17 -17 -17 -17 -17 -16 -15 -15 -14 -14 -13 -13 -11 -10 -9 -7 -5 -4 -3 -3 -3 -2 -2 -2 -2 -2 -3 -3 -3 -3 -4 -3 -3 -5 -5 -4 -3
-17 -18 -18 -18 -18 -18 -18 -18 -17 -17 -17 -17 -17 -17 -16 -16 -15 -15 -14 -13 -12 -10 -8 -5 -4 -4 -4 -3 -3 -2 -2 -3 -3 -3 -3 -4 -5 -5 -6 -6 -7 -6 -7
-18 -19 -18 -18 -18 -18 -18 -18 -18 -17 -17 -16 -15 -15 -15 -14 -14 -13 -13 -13 -12 -11 -10 -8 -6 -6 -6 -5 -4 -3 -3 -3 -3 -4 -4 -5 -6 -6 -6 -6 -7 -8 -8
-19 -19 -19 -19 -19 -19 -19 -19 -18 -17 -16 -15 -14 -14 -14 -13 -13 -12 -12 -12 -11 -10 -10 -9 -8 -7 -6 -5 -4 -3 -4 -4 -4 -4 -5 -5 -6 -6 -7 -8 -8 -9 -8
-19 -19 -19 -20 -19 -19 -19 -18 -18 -17 -16 -16 -15 -14 -14 -13 -13 -13 -12 -12 -11 -10 -10 -9 -8 -7 -6 -6 -4 -5 -5 -4 -4 -4 -5 -6 -6 -8 -9 -9 -10 -9 -9
-19 -20 -20 -20 -20 -19 -19 -18 -18 -17 -17 -16 -16 -15 -14 -13 -12 -12 -11 -11 -11 -11 -11 -10 -9 -8 -6 -5 -5 -5 -5 -5 -5 -5 -6 -7 -8 -9 -9 -9 -10 -10 -10
-20 -20 -20 -19 -19 -19 -18 -17 -17 -17 -16 -16 -15 -14 -14 -13 -13 -12 -11 -11 -11 -11 -10 -9 -9 -7 -6 -5 -5 -5 -5 -6 -6 -7 -8 -8 -9 -9 -9 -10 -10 -10 -11
-20 -20 -19 -19 -19 -19 -18 -17 -17 -16 -16 -15 -14 -14 -14 -13 -13 -13 -12 -11 -10 -9 -9 -8 -7 -6 -5 -5 -6 -6 -7 -7 -8 -8 -9 -9 -10 -10 -10 -11 -11 -12 -12
-20 -20 -20 -19 -19 -19 -18 -17 -17 -16 -16 -16 -16 -16 -14 -15 -15 -15 -14 -14 -14 -13 -9 -8 -7 -6 -5 -6 -7 -7 -8 -8 -9 -9 -10 -11 -11 -11 -12 -12 -12 -13 -13
-21 -21 -20 -20 -20 -19 -19 -18 -18 -17 -17 -17 -17 -17 -16 -17 -17 -17 -16 -16 -16 -15 -13 -9 -8 -8 -8 -8 -9 -9 -10 -11 -11 -12 -12 -12 -12 -13 -13 -14 -14 -14 -14
-21 -21 -21 -21 -20 -20 -19 -19 -18 -18 -18 -18 -18 -18 -18 -18 -18 -18 -18 -18 -17 -15 -14 -13 -13 -12 -11 -11 -11 -11 -12 -13 -13 -13 -13 -14 -14 -14 -14 -14 -14 -15 -15
-20 -21 -21 -21 -21 -21 -20 -20 -19 -19 -19 -19 -19 -19 -19 -19 -19 -19 -19 -19 -18 -18 -17 -15 -14 -13 -13 -12 -12 -12 -12 -13 -13 -14 -14 -14 -14 -15 -15 -15 -15 -15 -15
-20 -21 -21 -21 -21 -21 -21 -21 -20 -20 -19 -19 -19 -19 -19 -19 -19 -19 -19 -19 -19 -19 -19 -18 -17 -16 -15 -15 -14 -14 -15 -14 -14 -14 -15 -15 -15 -15 -16 -16 -16 -16 -16
-21 -21 -21 -21 -21 -21 -21 -21 -21 -21 -21 -20 -20 -20 -20 -20 -20 -20 -20 -19 -19 -19 -19 -18 -18 -18 -17 -17 -16 -16 -16 -15 -15 -15 -15 -15 -15 -16 -16 -16 -16 -16 -16

GFSGL_925_temp_030.txt.gz
Temp
4 3 3 2 2 2 2 1 1 1 1 1 0 1 1 1 1 1 2 2 2 2 3 2 2 2 2 2 2 2 2 3 2 4 6 7 8 7 7 7 6 5 5
2 2 2 1 1 1 1 1 1 0 1 0 0 0 0 0 0 -0 -0 1 1 1 2 1 1 1 1 1 2 2 2 2 2 2 4 5 6 7 7 7 6 5 4
2 1 1 1 0 -0 -1 -1 -1 -1 -1 -1 -1 -1 -1 -0 -0 0 -1 -1 -2 -1 -0 1 1 0 0 1 1 0 0 1 1 1 1 3 4 4 4 3 3 3 2
2 2 1 1 -0 -1 -1 -2 -2 -3 -3 -3 -3 -3 -3 -3 -3 -3 -3 -3 -3 -3 -3 -3 -2 -1 -0 0 -0 -0 -1 -1 -0 -0 0 1 2 2 2 0 -1 0 1
2 1 1 -0 -1 -1 -2 -3 -4 -5 -5 -5 -6 -6 -6 -6 -6 -6 -5 -5 -5 -5 -4 -4 -4 -3 -2 -1 -2 -1 -1 -1 -1 -1 -0 0 -1 -1 -0 -0 -0 -1 -0
1 0 -0 -0 -1 -2 -3 -4 -5 -5 -6 -7 -7 -7 -7 -7 -7 -6 -6 -6 -6 -6 -6 -5 -5 -4 -4 -4 -3 -2 -2 -2 -2 -1 -0 0 1 -1 0 0 -1 -2 -1
-0 -1 -1 -2 -4 -5 -6 -6 -7 -8 -9 -9 -9 -9 -9 -9 -8 -8 -7 -7 -8 -8 -7 -7 -6 -6 -5 -5 -4 -4 -3 -2 -1 -1 -1 -1 0 1 0 -0 -1 0 1
-2 -3 -4 -5 -7 -7 -8 -9 -10 -11 -12 -12 -12 -12 -12 -12 -11 -10 -10 -10 -9 -9 -9 -9 -8 -8 -7 -6 -5 -5 -4 -4 -3 -2 -1 -1 -0 -0 1 0 -0 0 0
-4 -6 -8 -9 -9 -10 -11 -12 -13 -14 -14 -15 -15 -14 -14 -15 -14 -13 -12 -12 -12 -11 -11 -11 -10 -10 -9 -8 -7 -6 -5 -4 -4 -3 -3 -2 -1 -1 -0 -0 -2 -2 -2
-8 -9 -10 -11 -12 -13 -14 -14 -15 -16 -16 -16 -16 -17 -17 -17 -16 -15 -13 -13 -13 -13 -12 -12 -11 -10 -9 -8 -8 -7 -7 -6 -5 -4 -3 -3 -2 -2 -1 -0 -2 -2 -2
-11 -11 -11 -12 -13 -14 -15 -16 -16 -17 -18 -18 -18 -18 -18 -18 -17 -16 -14 -13 -13 -13 -13 -12 -12 -11 -11 -10 -9 -8 -7 -6 -5 -4 -4 -4 -3 -3 -3 -2 -1 -3 -2
-12 -13 -13 -14 -14 -15 -16 -17 -17 -19 -19 -19 -19 -18 -18 -17 -17 -16 -14 -13 -13 -12 -13 -13 -13 -12 -11 -11 -10 -10 -8 -7 -6 -5 -4 -4 -3 -4 -3 -2 -2 -2 -3
-14 -14 -14 -15 -15 -16 -17 -17 -19 -19 -19 -19 -19 -18 -18 -17 -17 -16 -14 -14 -13 -13 -13 -13 -11 -10 -10 -10 -10 -10 -9 -10 -8 -7 -4 -3 -3 -3 -3 -3 -3 -3 -3
-15 -15 -15 -16 -17 -17 -18 -18 -19 -19 -19 -19 -18 -18 -17 -15 -14 -14 -14 -14 -14 -13 -13 -13 -12 -11 -11 -10 -11 -10 -10 -10 -10 -8 -6 -3 -3 -4 -3 -3 -3 -3 -3
-16 -15 -16 -17 -18 -18 -19 -19 -19 -18 -18 -16 -15 -14 -14 -14 -14 -12 -12 -11 -11 -11 -10 -10 -10 -12 -14 -14 -13 -12 -11 -10 -11 -8 -6 -4 -3 -3 -3 -3 -4 -3 -3
-17 -17 -18 -18 -19 -19 -19 -19 -18 -17 -16 -15 -14 -14 -14 -13 -13 -12 -11 -11 -10 -10 -9 -9 -10 -10 -10 -10 -11 -11 -11 -10 -9 -7 -6 -5 -5 -4 -4 -4 -4 -4 -4
-18 -18 -18 -19 -19 -20 -20 -20 -20 -18 -17 -17 -16 -15 -14 -13 -13 -13 -12 -12 -12 -12 -12 -12 -12 -11 -11 -11 -11 -11 -11 -10 -9 -8 -7 -6 -5 -4 -4 -4 -5 -4 -5
-18 -18 -18 -19 -20 -20 -20 -20 -20 -20 -19 -19 -18 -17 -16 -15 -15 -13 -14 -15 -17 -16 -16 -15 -14 -14 -13 -12 -11 -11 -11 -10 -9 -8 -7 -6 -5 -4 -4 -4 -5 -5 -5
-18 -18 -19 -19 -20 -20 -20 -21 -20 -20 -19 -19 -19 -18 -18 -17 -16 -17 -17 -19 -18 -18 -17 -17 -16 -16 -15 -15 -12 -12 -12 -11 -10 -9 -8 -6 -5 -5 -4 -5 -5 -6 -6
-18 -19 -20 -20 -20 -20 -21 -21 -21 -20 -20 -20 -19 -19 -18 -17 -19 -19 -19 -19 -19 -19 -19 -18 -18 -17 -15 -13 -12 -11 -11 -11 -10 -9 -8 -7 -6 -5 -5 -5 -6 -6 -7
-19 -19 -20 -20 -20 -21 -21 -21 -21 -21 -21 -20 -20 -20 -16 -18 -19 -19 -19 -19 -19 -20 -20 -19 -19 -18 -17 -15 -14 -12 -9 -9 -9 -8 -7 -6 -6 -6 -6 -6 -7 -7 -7
-19 -19 -20 -20 -20 -21 -21 -21 -21 -21 -21 -21 -20 -20 -19 -20 -20 -20 -20 -20 -19 -19 -19 -19 -19 -18 -17 -16 -15 -14 -13 -11 -10 -8 -8 -8 -8 -8 -8 -8 -9 -9 -10
-20 -19 -19 -20 -20 -20 -21 -21 -21 -21 -21 -21 -21 -21 -21 -21 -21 -21 -20 -20 -20 -19 -19 -18 -18 -18 -17 -16 -15 -15 -14 -13 -12 -11 -10 -10 -10 -10 -10 -11 -11 -11 -11
-20 -20 -20 -20 -20 -20 -21 -21 -20 -21 -21 -21 -21 -21 -21 -21 -21 -20 -20 -20 -19 -19 -18 -18 -17 -17 -16 -16 -16 -15 -14 -14 -13 -12 -12 -12 -12 -12 -12 -12 -12 -12 -12
-20 -20 -20 -20 -20 -20 -21 -20 -20 -21 -21 -21 -21 -21 -21 -20 -20 -20 -20 -20 -19 -19 -18 -17 -17 -16 -16 -15 -15 -15 -15 -14 -14 -13 -13 -13 -13 -13 -13 -14 -14 -14 -14
-20 -20 -20 -21 -21 -21 -21 -21 -21 -21 -21 -21 -21 -21 -21 -21 -21 -20 -20 -20 -19 -19 -18 -18 -17 -16 -16 -16 -15 -14 -14 -15 -15 -14 -14 -14 -14 -14 -14 -15 -15 -15 -15

GFSGL_925_temp_033.txt.gz
Temp
3 3 2 2 2 1 1 1 1 0 0 0 0 0 0 0 0 -0 -0 0 -0 0 1 0 1 1 1 1 1 1 0 1 -0 1 2 3 3 5 6 7 7 7 7
3 3 2 2 1 1 1 0 0 0 0 -0 -0 -0 -0 -1 -1 -2 -3 -2 -3 -3 -2 -2 -1 -0 -1 0 1 1 -0 -0 -1 -0 1 1 2 3 4 5 6 7 7
3 2 2 1 0 -0 -0 -0 -1 -1 -1 -1 -2 -2 -3 -3 -3 -4 -5 -5 -5 -5 -4 -4 -4 -4 -3 -2 -2 -2 -1 -1 -1 -2 -1 -0 0 1 2 3 4 5 5
2 1 0 -0 -1 -1 -1 -1 -2 -2 -3 -3 -4 -5 -6 -7 -7 -7 -6 -6 -6 -6 -6 -6 -6 -5 -5 -4 -4 -3 -3 -3 -2 -2 -2 -1 -1 -0 0 0 1 2 3
1 0 -0 -1 -1 -1 -1 -2 -2 -3 -4 -5 -6 -6 -8 -8 -8 -7 -7 -7 -7 -7 -7 -7 -6 -6 -6 -5 -5 -4 -4 -4 -4 -3 -2 -2 -2 -2 -1 -0 -1 -0 1
0 -1 -1 -1 -1 -1 -2 -3 -3 -4 -6 -7 -8 -9 -10 -10 -10 -9 -8 -8 -8 -8 -8 -8 -7 -7 -7 -6 -6 -5 -4 -4 -4 -3 -3 -2 -1 -1 -1 -1 -1 -1 -1
-0 -1 -1 -1 -2 -3 -4 -4 -6 -7 -8 -9 -11 -12 -13 -13 -12 -11 -11 -11 -11 -11 -10 -10 -9 -9 -8 -8 -8 -7 -7 -6 -5 -4 -3 -2 -2 -2 -1 -1 -1 -1 -0
-1 -1 -2 -3 -4 -4 -5 -7 -8 -9 -11 -12 -13 -14 -15 -15 -14 -13 -13 -12 -13 -13 -12 -12 -11 -11 -10 -10 -10 -9 -9 -8 -7 -6 -5 -4 -4 -3 -2 -1 -1 -1 -1
-2 -3 -4 -5 -5 -6 -8 -9 -11 -12 -13 -13 -15 -16 -16 -16 -16 -15 -14 -14 -14 -14 -13 -13 -12 -12 -12 -11 -10 -10 -10 -9 -9 -8 -7 -5 -4 -4 -3 -2 -2 -2 -1
-4 -5 -6 -7 -8 -10 -11 -12 -12 -13 -14 -16 -17 -17 -17 -17 -16 -16 -14 -14 -14 -14 -13 -13 -13 -12 -11 -10 -10 -10 -10 -10 -9 -9 -8 -7 -6 -5 -4 -3 -2 -1 -1
-6 -7 -8 -9 -10 -11 -12 -13 -14 -15 -17 -17 -17 -17 -18 -16 -16 -16 -14 -14 -14 -13 -13 -13 -12 -12 -11 -11 -10 -10 -10 -10 -10 -9 -9 -8 -7 -6 -5 -4 -3 -2 -1
-8 -9 -10 -11 -11 -12 -13 -13 -15 -16 -18 -18 -19 -19 -18 -16 -16 -16 -14 -13 -12 -12 -13 -13 -12 -12 -11 -10 -10 -10 -9 -9 -9 -10 -10 -9 -9 -7 -5 -4 -4 -3 -3
-10 -10 -11 -12 -13 -13 -14 -14 -16 -17 -19 -19 -19 -19 -18 -16 -16 -16 -14 -13 -12 -12 -12 -11 -10 -10 -9 -9 -9 -9 -9 -10 -10 -11 -11 -10 -10 -9 -8 -5 -4 -4 -4
-12 -13 -13 -14 -14 -15 -15 -15 -17 -18 -19 -19 -19 -18 -17 -15 -14 -14 -14 -13 -13 -12 -11 -11 -11 -10 -10 -9 -10 -10 -10 -10 -10 -10 -10 -10 -10 -10 -9 -8 -4 -4 -4
-14 -14 -14 -15 -16 -16 -16 -16 -18 -18 -18 -16 -15 -14 -14 -14 -14 -12 -11 -12 -11 -11 -10 -11 -11 -11 -10 -10 -12 -12 -12 -12 -12 -12 -11 -11 -11 -11 -10 -8 -5 -4 -4
-14 -14 -15 -16 -16 -17 -18 -17 -15 -17 -16 -15 -14 -14 -14 -14 -13 -12 -12 -11 -11 -12 -13 -15 -15 -14 -14 -13 -12 -12 -11 -11 -11 -12 -11 -11 -10 -10 -9 -8 -4 -4 -4
-15 -16 -17 -17 -18 -18 -19 -19 -20 -13 -16 -17 -16 -16 -15 -14 -14 -13 -13 -13 -15 -16 -18 -18 -17 -16 -16 -15 -15 -15 -14 -12 -11 -11 -11 -11 -10 -10 -6 -5 -4 -4 -4
-16 -16 -17 -17 -18 -19 -19 -20 -20 -21 -20 -17 -17 -18 -16 -16 -14 -15 -15 -17 -19 -19 -19 -19 -18 -18 -18 -17 -16 -16 -14 -14 -12 -11 -11 -10 -10 -9 -7 -6 -5 -5 -4
-16 -16 -17 -18 -18 -19 -20 -20 -20 -20 -20 -20 -18 -17 -16 -18 -16 -17 -18 -20 -20 -20 -20 -20 -20 -19 -19 -18 -17 -16 -15 -13 -12 -12 -12 -11 -10 -9 -8 -6 -5 -5 -5
-17 -18 -18 -18 -19 -19 -20 -21 -21 -21 -21 -21 -21 -20 -17 -17 -17 -19 -20 -20 -20 -20 -20 -20 -20 -19 -19 -18 -18 -17 -15 -14 -13 -11 -11 -11 -11 -9 -8 -7 -6 -5 -5
-18 -18 -18 -19 -19 -19 -20 -21 -21 -21 -21 -21 -20 -20 -17 -18 -20 -20 -20 -20 -20 -20 -20 -20 -19 -19 -19 -18 -17 -17 -16 -15 -14 -13 -10 -10 -10 -8 -7 -7 -6 -6 -6
-18 -18 -19 -19 -19 -19 -20 -20 -21 -21 -21 -21 -20 -19 -20 -20 -20 -20 -20 -20 -20 -19 -19 -19 -19 -19 -18 -18 -17 -16 -16 -15 -15 -14 -12 -11 -10 -9 -8 -7 -7 -7 -7
-19 -20 -20 -19 -20 -20 -20 -20 -20 -20 -20 -20 -21 -20 -20 -20 -20 -20 -20 -19 -19 -19 -19 -19 -18 -18 -17 -17 -16 -15 -16 -16 -15 -14 -13 -12 -11 -11 -10 -10 -10 -10 -10
-20 -20 -20 -20 -20 -20 -20 -20 -20 -20 -20 -20 -20 -20 -20 -20 -20 -20 -20 -19 -19 -18 -18 -18 -18 -18 -17 -16 -16 -15 -14 -15 -15 -14 -13 -13 -13 -12 -12 -12 -12 -12 -12
-20 -21 -20 -20 -20 -20 -20 -20 -20 -20 -20 -20 -20 -20 -20 -20 -20 -20 -20 -20 -19 -19 -18 -18 -18 -18 -17 -16 -15 -15 -14 -14 -15 -15 -14 -14 -13 -13 -13 -13 -13 -13 -13
-21 -21 -21 -21 -21 -21 -20 -20 -20 -20 -20 -20 -20 -20 -21 -21 -20 -20 -20 -20 -19 -19 -18 -18 -18 -17 -17 -16 -15 -15 -14 -14 -15 -15 -15 -15 -14 -14 -14 -14 -14 -14 -14

GFSGL_925_temp_036.txt.gz
Temp
2 2 2 2 1 1 1 1 0 0 0 0 0 0 -0 -1 -1 -2 -2 -2 -2 -2 -2 -2 -2 -2 -2 -2 -1 -1 -1 -1 -2 -1 0 1 1 2 2 3 3 4 5
3 2 2 1 1 1 1 0 0 -0 -1 -1 -1 -1 -2 -2 -3 -3 -4 -4 -5 -5 -5 -5 -5 -4 -4 -4 -4 -4 -4 -3 -3 -3 -2 -1 -1 1 1 2 2 2 3
2 2 1 1 1 0 -0 -1 -1 -1 -1 -2 -3 -3 -4 -5 -6 -6 -6 -7 -7 -7 -7 -7 -7 -7 -6 -6 -5 -5 -5 -5 -4 -4 -3 -3 -2 -1 -0 1 2 2 2
2 2 1 0 -0 -0 -1 -1 -1 -1 -1 -2 -3 -4 -5 -6 -7 -8 -8 -8 -8 -8 -8 -8 -7 -7 -7 -7 -7 -6 -6 -6 -5 -5 -4 -4 -3 -2 -2 -1 -1 1 1
2 1 0 -0 -1 -1 -1 -1 -2 -2 -2 -3 -4 -5 -6 -7 -9 -9 -10 -10 -10 -9 -9 -9 -9 -8 -8 -7 -7 -7 -7 -6 -6 -5 -4 -4 -4 -3 -3 -2 -1 -1 -0
1 1 -0 -1 -1 -1 -1 -2 -2 -3 -3 -5 -6 -8 -9 -10 -11 -11 -10 -11 -11 -11 -11 -11 -11 -11 -10 -9 -8 -7 -7 -6 -6 -6 -5 -5 -4 -3 -3 -3 -2 -2 -1
1 -0 -1 -2 -2 -2 -2 -2 -3 -4 -5 -6 -8 -9 -10 -11 -13 -12 -12 -12 -13 -13 -13 -13 -12 -12 -12 -12 -11 -10 -9 -9 -8 -8 -7 -7 -6 -5 -4 -4 -3 -2 -2
-0 -1 -2 -2 -2 -2 -3 -4 -5 -6 -7 -8 -10 -11 -12 -12 -14 -14 -13 -13 -14 -14 -14 -13 -13 -13 -13 -12 -12 -11 -11 -10 -10 -10 -9 -9 -8 -8 -7 -6 -5 -4 -3
-1 -2 -3 -2 -2 -3 -4 -5 -6 -7 -8 -10 -12 -12 -12 -12 -13 -14 -14 -14 -14 -14 -14 -13 -13 -13 -13 -12 -11 -11 -11 -11 -10 -10 -9 -8 -8 -7 -7 -6 -6 -5 -4
-2 -3 -3 -3 -4 -4 -5 -7 -9 -10 -11 -12 -13 -13 -13 -14 -13 -15 -14 -14 -14 -14 -13 -13 -13 -12 -11 -11 -11 -11 -11 -11 -11 -11 -10 -10 -9 -9 -8 -8 -7 -6 -5
-4 -4 -4 -5 -5 -6 -8 -9 -10 -11 -12 -14 -14 -14 -14 -14 -14 -16 -14 -13 -13 -13 -12 -12 -12 -12 -11 -10 -10 -10 -10 -10 -10 -10 -10 -10 -10 -10 -10 -9 -8 -7 -6
-5 -5 -6 -7 -7 -8 -10 -10 -12 -13 -14 -15 -15 -15 -15 -15 -15 -15 -13 -12 -12 -12 -12 -12 -12 -11 -11 -10 -9 -9 -8 -8 -9 -10 -10 -10 -10 -10 -10 -10 -9 -8 -9
-6 -7 -7 -8 -9 -10 -11 -12 -13 -14 -16 -17 -17 -17 -16 -15 -15 -15 -13 -12 -12 -11 -11 -11 -10 -10 -9 -10 -10 -9 -9 -10 -10 -10 -10 -10 -10 -10 -10 -10 -10 -10 -10
-7 -8 -9 -10 -11 -12 -13 -13 -14 -15 -16 -18 -17 -17 -16 -15 -14 -14 -13 -12 -12 -11 -11 -11 -12 -12 -13 -12 -12 -11 -11 -11 -11 -11 -11 -10 -10 -11 -11 -11 -11 -11 -10
-9 -10 -11 -12 -13 -13 -14 -14 -15 -15 -17 -17 -15 -14 -14 -14 -14 -12 -11 -11 -11 -12 -13 -15 -16 -17 -16 -16 -15 -15 -14 -13 -13 -13 -12 -12 -12 -12 -12 -11 -11 -11 -11
-11 -12 -13 -14 -14 -15 -15 -15 -14 -16 -15 -14 -14 -13 -14 -14 -13 -12 -12 -12 -13 -14 -16 -18 -19 -18 -18 -17 -17 -17 -16 -16 -15 -14 -13 -12 -12 -12 -12 -11 -11 -11 -10
-12 -13 -14 -15 -15 -16 -16 -18 -18 -14 -16 -17 -16 -16 -15 -14 -14 -13 -13 -13 -16 -17 -19 -20 -20 -20 -19 -19 -18 -18 -17 -17 -16 -15 -14 -13 -12 -12 -11 -11 -11 -10 -9
-13 -14 -15 -16 -16 -17 -18 -18 -19 -20 -20 -17 -17 -18 -17 -16 -15 -14 -15 -17 -17 -19 -20 -20 -20 -20 -20 -19 -19 -19 -18 -17 -16 -15 -14 -12 -12 -12 -11 -10 -10 -10 -7
-15 -16 -16 -16 -17 -18 -18 -19 -19 -20 -20 -20 -17 -16 -17 -17 -17 -17 -18 -18 -20 -20 -20 -20 -20 -20 -20 -19 -19 -19 -18 -17 -17 -16 -14 -13 -11 -12 -12 -11 -10 -9 -7
-16 -16 -17 -17 -18 -19 -19 -20 -20 -20 -20 -20 -20 -18 -17 -18 -18 -18 -18 -19 -20 -20 -20 -20 -20 -20 -19 -19 -19 -18 -18 -17 -16 -16 -15 -14 -12 -12 -12 -11 -10 -9 -7
-17 -17 -18 -19 -19 -19 -19 -20 -20 -20 -21 -20 -20 -19 -19 -17 -18 -19 -19 -19 -20 -20 -20 -20 -19 -19 -19 -19 -19 -18 -17 -16 -16 -16 -15 -15 -14 -13 -10 -10 -9 -8 -7
-18 -19 -19 -19 -19 -20 -19 -20 -20 -20 -20 -20 -19 -19 -20 -19 -19 -19 -19 -19 -19 -19 -19 -20 -19 -19 -19 -19 -18 -18 -17 -16 -16 -16 -16 -15 -14 -13 -12 -11 -9 -8 -7
-19 -19 -20 -20 -20 -20 -20 -20 -20 -20 -20 -20 -20 -20 -19 -19 -19 -19 -19 -19 -19 -19 -19 -19 -19 -18 -18 -18 -17 -17 -17 -16 -15 -16 -16 -15 -15 -14 -13 -12 -11 -11 -10
-20 -20 -20 -20 -21 -21 -20 -20 -20 -20 -20 -20 -20 -20 -20 -20 -20 -20 -19 -19 -19 -19 -19 -19 -18 -18 -18 -17 -16 -16 -15 -15 -15 -15 -15 -15 -15 -14 -13 -13 -12 -12 -12
-21 -21 -21 -21 -21 -21 -21 -21 -21 -21 -20 -20 -20 -20 -20 -20 -20 -20 -20 -20 -19 -19 -19 -19 -18 -18 -17 -17 -16 -15 -15 -14 -14 -15 -15 -15 -15 -14 -14 -14 -14 -13 -13
-21 -21 -21 -21 -22 -22 -22 -22 -21 -21 -21 -20 -20 -20 -20 -21 -20 -20 -20 -20 -20 -19 -19 -18 -18 -17 -17 -16 -16 -15 -15 -14 -14 -15 -15 -15 -15 -15 -15 -15 -15 -15 -15

GFSGL_925_temp_042.txt.gz
Temp
1 1 1 1 1 1 1 0 0 0 0 0 0 -0 -0 -1 -2 -3 -4 -4 -5 -5 -4 -5 -5 -5 -4 -4 -4 -4 -4 -3 -2 -2 -2 -2 -2 -2 -1 -1 -1 -1 -0
0 1 1 1 1 -0 -0 0 0 0 0 -0 -0 -1 -1 -2 -2 -3 -5 -5 -6 -5 -6 -6 -6 -6 -6 -5 -5 -5 -5 -5 -4 -4 -4 -4 -3 -3 -3 -3 -2 -2 -1
0 0 0 -0 -1 -1 -0 -0 -0 -0 -0 -1 -1 -1 -2 -3 -3 -5 -5 -6 -6 -7 -7 -7 -7 -7 -7 -7 -7 -7 -6 -6 -6 -6 -5 -5 -4 -4 -4 -3 -3 -2 -2
0 -0 -0 -1 -1 -1 -0 -0 -1 -1 -1 -1 -1 -2 -3 -3 -4 -5 -7 -7 -7 -7 -8 -8 -8 -8 -9 -9 -9 -9 -8 -8 -8 -7 -6 -6 -5 -5 -4 -4 -3 -2 -2
1 -0 -0 -1 -1 -1 -1 -1 -1 -1 -2 -2 -3 -3 -3 -4 -5 -7 -8 -8 -8 -8 -9 -9 -9 -10 -11 -11 -10 -10 -9 -9 -9 -9 -8 -7 -7 -6 -6 -6 -5 -5 -4
0 -0 -0 -1 -1 -0 -1 -1 -2 -2 -3 -3 -3 -3 -4 -5 -5 -7 -9 -9 -9 -9 -9 -10 -10 -10 -10 -11 -11 -10 -10 -10 -10 -10 -9 -8 -8 -7 -7 -7 -7 -6 -5
1 1 1 0 -0 -1 -2 -2 -3 -3 -3 -4 -4 -4 -5 -6 -6 -8 -11 -10 -10 -10 -10 -10 -10 -10 -11 -11 -11 -11 -10 -10 -10 -9 -10 -9 -9 -8 -8 -8 -8 -7 -7
2 1 1 -0 -1 -2 -2 -3 -3 -3 -5 -6 -6 -6 -6 -7 -8 -9 -11 -11 -11 -11 -11 -11 -11 -11 -11 -11 -11 -10 -10 -10 -10 -9 -9 -9 -9 -9 -9 -9 -8 -8 -8
2 1 1 0 -1 -2 -3 -3 -4 -5 -6 -6 -6 -7 -7 -7 -8 -10 -12 -11 -11 -11 -11 -11 -11 -11 -11 -10 -10 -10 -10 -9 -9 -9 -9 -8 -8 -8 -8 -8 -8 -8 -7
2 2 2 0 -1 -2 -3 -4 -5 -5 -7 -8 -8 -8 -8 -8 -9 -10 -12 -11 -11 -11 -11 -10 -10 -10 -10 -9 -9 -9 -9 -9 -9 -9 -9 -9 -9 -9 -8 -9 -9 -8 -8
3 2 1 -0 -2 -3 -5 -5 -6 -7 -8 -9 -8 -9 -9 -9 -10 -10 -13 -11 -11 -10 -10 -10 -10 -10 -9 -9 -9 -10 -10 -10 -10 -10 -10 -9 -9 -8 -9 -9 -9 -9 -9
2 1 -0 -2 -3 -5 -6 -6 -7 -8 -9 -10 -10 -10 -10 -10 -10 -12 -13 -11 -10 -10 -10 -10 -10 -10 -11 -12 -12 -12 -12 -11 -13 -12 -12 -11 -10 -10 -9 -9 -9 -9 -9
0 -1 -2 -4 -5 -6 -7 -8 -9 -9 -10 -11 -12 -12 -12 -13 -13 -12 -12 -12 -11 -11 -10 -11 -12 -13 -14 -14 -14 -14 -14 -14 -14 -13 -13 -12 -12 -12 -11 -11 -11 -11 -10
-1 -3 -4 -6 -7 -8 -8 -9 -9 -10 -12 -13 -13 -13 -13 -13 -13 -13 -13 -12 -11 -10 -11 -13 -14 -14 -15 -15 -15 -15 -15 -15 -15 -15 -14 -14 -14 -13 -13 -12 -12 -11 -11
-4 -5 -7 -8 -9 -9 -9 -10 -10 -10 -10 -12 -13 -13 -14 -12 -12 -12 -11 -11 -10 -11 -12 -13 -15 -16 -16 -16 -16 -16 -16 -16 -16 -15 -15 -15 -15 -14 -14 -13 -13 -12 -11
-6 -8 -9 -9 -10 -11 -12 -11 -10 -11 -13 -13 -12 -12 -12 -12 -12 -12 -11 -11 -11 -13 -14 -16 -16 -16 -16 -16 -16 -16 -16 -16 -16 -16 -16 -15 -15 -15 -14 -14 -13 -12 -11
-7 -8 -10 -10 -11 -12 -13 -14 -13 -14 -14 -14 -14 -13 -12 -12 -12 -12 -12 -12 -13 -14 -16 -17 -17 -17 -17 -17 -17 -17 -17 -16 -17 -16 -16 -16 -15 -15 -15 -14 -13 -12 -11
-10 -10 -11 -12 -13 -14 -14 -15 -15 -15 -15 -15 -15 -15 -15 -15 -14 -13 -13 -13 -15 -16 -17 -18 -18 -18 -18 -18 -18 -18 -18 -18 -17 -17 -17 -16 -16 -15 -15 -14 -13 -13 -11
-12 -12 -13 -14 -15 -16 -16 -17 -17 -17 -17 -18 -17 -16 -16 -17 -16 -15 -15 -17 -18 -19 -19 -19 -19 -19 -19 -19 -19 -19 -19 -18 -18 -18 -17 -16 -15 -15 -15 -14 -14 -13 -12
-13 -14 -15 -16 -17 -18 -18 -18 -18 -18 -18 -18 -18 -18 -18 -18 -18 -18 -17 -18 -18 -19 -19 -20 -19 -20 -20 -20 -20 -19 -19 -19 -18 -18 -17 -16 -15 -15 -15 -15 -14 -13 -13
-15 -16 -16 -18 -19 -19 -19 -19 -19 -19 -19 -19 -19 -19 -19 -19 -19 -18 -19 -19 -18 -18 -19 -19 -19 -19 -19 -20 -21 -20 -20 -19 -19 -18 -18 -17 -16 -16 -15 -15 -14 -14 -13
-17 -18 -18 -19 -21 -21 -20 -20 -20 -20 -20 -20 -20 -20 -19 -18 -18 -19 -20 -19 -18 -19 -19 -19 -19 -19 -19 -20 -20 -21 -21 -19 -18 -18 -18 -18 -16 -16 -16 -15 -15 -14 -13
-19 -19 -20 -20 -21 -21 -22 -22 -22 -22 -21 -21 -21 -21 -21 -21 -21 -20 -19 -19 -19 -19 -19 -20 -20 -19 -19 -19 -19 -19 -19 -18 -17 -17 -17 -17 -16 -16 -16 -15 -15 -15 -14
-20 -20 -21 -22 -22 -22 -22 -22 -22 -22 -22 -22 -22 -22 -22 -21 -21 -20 -20 -19 -20 -19 -19 -20 -19 -19 -19 -19 -18 -18 -18 -17 -16 -16 -16 -17 -16 -16 -16 -16 -16 -16 -15
-20 -20 -21 -22 -22 -22 -22 -23 -23 -23 -23 -23 -22 -22 -22 -21 -21 -20 -20 -20 -20 -20 -19 -19 -19 -19 -19 -18 -18 -17 -17 -16 -16 -15 -16 -15 -15 -15 -16 -16 -16 -16 -16
-20 -21 -21 -22 -22 -22 -23 -22 -22 -22 -22 -22 -22 -22 -22 -22 -21 -21 -20 -20 -20 -20 -20 -19 -19 -19 -18 -18 -17 -17 -17 -16 -15 -15 -15 -15 -15 -15 -15 -16 -16 -16 -16

GFSGL_925_temp_045.txt.gz
Temp
2 2 2 2 2 2 2 2 2 1 1 1 0 0 0 -0 -0 -1 -2 -2 -3 -4 -4 -4 -4 -4 -4 -4 -4 -4 -4 -4 -3 -3 -3 -3 -3 -3 -3 -3 -3 -3 -3
2 2 2 1 1 1 1 1 1 0 0 0 0 0 -0 -1 -1 -2 -3 -4 -4 -5 -5 -5 -5 -5 -6 -6 -6 -6 -6 -6 -5 -5 -5 -5 -5 -5 -5 -5 -4 -3 -3
2 2 1 1 0 0 0 0 -0 -0 -0 0 -0 -1 -1 -1 -2 -3 -3 -4 -5 -5 -6 -6 -6 -7 -7 -7 -7 -8 -8 -8 -7 -7 -7 -7 -7 -6 -6 -5 -5 -4 -4
2 1 1 1 0 0 -0 -0 -0 -1 -1 -1 -1 -1 -1 -1 -2 -3 -4 -5 -6 -6 -6 -7 -7 -7 -8 -9 -9 -9 -9 -9 -9 -9 -8 -8 -8 -8 -7 -6 -6 -6 -6
2 1 1 1 0 -0 -1 -1 -1 -1 -2 -2 -2 -1 -2 -2 -2 -3 -4 -6 -7 -7 -7 -7 -8 -8 -9 -9 -9 -10 -10 -10 -10 -10 -9 -9 -8 -8 -8 -7 -7 -7 -7
2 1 1 0 -0 -1 -1 -1 -1 -2 -2 -2 -2 -2 -2 -3 -3 -4 -5 -7 -8 -8 -8 -8 -9 -9 -9 -9 -10 -9 -9 -9 -9 -10 -9 -9 -8 -8 -8 -8 -8 -8 -7
1 1 1 0 -0 -1 -1 -1 -2 -2 -3 -3 -3 -3 -3 -4 -4 -5 -7 -8 -9 -9 -9 -9 -9 -9 -10 -10 -10 -10 -9 -9 -9 -9 -9 -9 -8 -8 -8 -8 -8 -8 -8
1 0 1 0 -0 -1 -1 -2 -3 -3 -4 -4 -4 -4 -5 -5 -6 -6 -8 -9 -9 -9 -9 -10 -10 -10 -10 -10 -10 -9 -9 -9 -9 -9 -9 -9 -9 -9 -9 -9 -9 -9 -8
0 -0 1 1 -0 -1 -1 -2 -3 -4 -5 -4 -4 -5 -6 -6 -6 -7 -9 -10 -10 -10 -10 -10 -10 -10 -10 -9 -8 -9 -9 -9 -9 -9 -9 -8 -8 -8 -8 -8 -8 -8 -8
1 2 1 1 0 0 -0 -2 -3 -4 -5 -5 -6 -6 -6 -6 -7 -8 -9 -10 -10 -10 -10 -9 -9 -9 -9 -8 -9 -10 -10 -11 -11 -10 -10 -10 -10 -10 -9 -8 -9 -9 -9
3 2 1 1 1 -0 -2 -3 -4 -5 -6 -7 -7 -7 -7 -7 -7 -8 -10 -11 -11 -10 -10 -9 -10 -9 -9 -9 -10 -11 -12 -11 -11 -12 -13 -12 -11 -11 -10 -9 -9 -9 -9
3 2 1 0 -1 -2 -3 -4 -5 -6 -7 -8 -8 -8 -8 -8 -8 -9 -11 -11 -10 -10 -10 -10 -10 -9 -10 -11 -11 -12 -12 -12 -14 -14 -14 -13 -13 -12 -11 -11 -12 -11 -11
2 1 0 -1 -3 -3 -4 -6 -7 -8 -9 -9 -9 -10 -10 -10 -10 -11 -11 -11 -11 -10 -10 -10 -9 -11 -12 -13 -13 -13 -14 -15 -15 -15 -15 -14 -13 -14 -14 -13 -13 -12 -12
1 -0 -2 -3 -4 -5 -6 -7 -8 -9 -9 -10 -10 -10 -10 -10 -11 -11 -12 -12 -11 -11 -10 -10 -11 -12 -13 -14 -14 -14 -15 -15 -15 -15 -14 -15 -15 -15 -14 -14 -13 -13 -12
-1 -2 -4 -5 -6 -7 -7 -7 -8 -8 -8 -9 -9 -10 -11 -11 -11 -11 -11 -11 -11 -10 -10 -12 -13 -14 -15 -15 -15 -15 -15 -15 -15 -15 -16 -16 -15 -15 -15 -14 -14 -14 -13
-3 -5 -6 -7 -9 -9 -10 -10 -10 -10 -11 -11 -11 -12 -11 -11 -11 -11 -10 -10 -10 -11 -12 -13 -14 -15 -15 -15 -16 -16 -16 -16 -16 -16 -16 -16 -16 -15 -15 -15 -14 -14 -13
-6 -7 -8 -9 -10 -11 -11 -11 -11 -10 -11 -11 -11 -11 -10 -10 -10 -10 -10 -10 -10 -13 -13 -14 -15 -16 -16 -16 -16 -16 -16 -16 -17 -17 -17 -16 -16 -16 -15 -15 -14 -14 -13
-9 -10 -10 -11 -11 -11 -11 -12 -12 -12 -12 -12 -13 -13 -13 -13 -12 -11 -11 -11 -13 -14 -15 -16 -17 -17 -17 -17 -17 -17 -18 -18 -18 -18 -17 -17 -17 -16 -15 -14 -14 -14 -14
-11 -11 -11 -12 -13 -13 -13 -14 -14 -15 -15 -15 -15 -15 -15 -15 -14 -13 -12 -13 -13 -15 -16 -17 -17 -18 -18 -18 -18 -18 -18 -18 -18 -18 -18 -17 -17 -16 -16 -15 -15 -15 -14
-13 -13 -13 -14 -15 -15 -16 -16 -16 -16 -16 -16 -16 -16 -17 -17 -17 -16 -16 -16 -16 -16 -17 -18 -18 -18 -18 -18 -19 -19 -19 -19 -19 -18 -18 -18 -17 -17 -16 -15 -15 -15 -15
-15 -15 -15 -15 -16 -17 -17 -17 -17 -17 -17 -17 -17 -17 -17 -18 -19 -18 -17 -18 -18 -18 -18 -18 -18 -18 -18 -19 -19 -19 -20 -19 -19 -19 -18 -18 -18 -18 -17 -16 -15 -15 -15
-16 -17 -17 -18 -18 -19 -19 -19 -19 -19 -19 -19 -19 -19 -18 -17 -17 -17 -17 -18 -18 -19 -19 -18 -18 -18 -19 -19 -19 -20 -20 -19 -19 -19 -18 -18 -18 -17 -16 -16 -16 -15 -15
-17 -18 -19 -19 -20 -21 -21 -21 -21 -21 -20 -20 -20 -20 -20 -20 -20 -19 -19 -19 -19 -19 -19 -19 -19 -18 -19 -19 -19 -20 -19 -19 -19 -19 -18 -18 -17 -17 -16 -16 -16 -16 -16
-19 -19 -20 -20 -20 -21 -21 -21 -21 -21 -21 -22 -22 -21 -21 -21 -21 -20 -20 -21 -20 -20 -19 -19 -19 -19 -19 -19 -19 -19 -19 -18 -19 -18 -18 -17 -17 -17 -16 -16 -16 -16 -16
-20 -20 -21 -21 -21 -21 -21 -21 -21 -21 -22 -22 -22 -22 -22 -21 -21 -21 -21 -21 -20 -20 -20 -19 -19 -19 -19 -19 -19 -18 -18 -18 -18 -17 -16 -16 -16 -16 -16 -16 -16 -16 -16
-20 -21 -21 -21 -21 -21 -21 -21 -21 -21 -21 -21 -21 -21 -21 -21 -21 -21 -22 -21 -21 -20 -20 -20 -19 -19 -19 -19 -18 -18 -18 -17 -17 -17 -17 -16 -16 -15 -15 -15 -16 -16 -16

GFSGL_925_temp_048.txt.gz
Temp
4 4 4 3 3 3 3 3 3 3 3 3 2 2 2 2 1 1 0 -0 -1 -1 -2 -3 -3 -4 -4 -4 -5 -6 -6 -6 -6 -6 -6 -7 -7 -7 -7 -7 -7 -6 -5
4 3 3 3 3 3 2 3 3 3 2 2 2 1 1 1 1 0 -0 -1 -1 -2 -3 -4 -4 -5 -5 -6 -7 -7 -7 -8 -8 -8 -8 -8 -9 -8 -8 -8 -8 -7 -7
3 3 2 2 2 2 2 2 2 2 2 2 1 1 1 0 0 -0 -1 -1 -2 -3 -4 -4 -5 -6 -6 -7 -7 -8 -9 -9 -9 -9 -9 -9 -9 -9 -9 -9 -8 -8 -8
3 3 2 2 2 2 2 2 2 2 1 1 0 -0 -0 -0 -1 -1 -1 -2 -3 -3 -4 -5 -6 -6 -7 -8 -8 -9 -9 -10 -10 -10 -10 -10 -9 -9 -9 -9 -8 -8 -8
3 2 2 2 2 1 1 1 1 1 0 -0 -1 -1 -1 -1 -2 -2 -2 -3 -3 -3 -4 -5 -6 -7 -8 -8 -8 -9 -9 -9 -10 -10 -10 -9 -9 -9 -8 -8 -8 -8 -8
3 3 2 2 1 1 1 1 1 -0 -1 -1 -1 -1 -2 -2 -3 -2 -3 -3 -4 -5 -5 -6 -7 -8 -8 -9 -9 -9 -9 -9 -9 -9 -9 -9 -8 -8 -8 -8 -8 -8 -8
3 2 2 1 1 1 0 0 -0 -1 -1 -1 -2 -2 -2 -3 -3 -2 -3 -4 -5 -6 -7 -7 -8 -8 -9 -9 -10 -9 -9 -9 -8 -8 -9 -9 -9 -9 -9 -9 -8 -8 -8
3 2 2 1 1 1 0 -0 -1 -1 -1 -1 -2 -2 -3 -3 -3 -3 -4 -5 -5 -6 -7 -8 -8 -9 -9 -10 -9 -9 -9 -9 -9 -9 -9 -9 -9 -9 -9 -9 -9 -9 -8
2 2 2 1 1 0 -0 -0 -1 -1 -2 -2 -2 -3 -3 -3 -4 -5 -5 -6 -6 -7 -8 -9 -9 -9 -9 -9 -8 -8 -9 -10 -10 -10 -10 -10 -10 -10 -10 -10 -10 -10 -9
2 2 2 1 1 1 0 -0 -1 -1 -2 -3 -3 -4 -3 -3 -4 -5 -6 -7 -8 -8 -9 -9 -9 -9 -9 -8 -8 -9 -10 -11 -11 -11 -12 -12 -13 -13 -12 -11 -11 -10 -10
3 2 1 1 1 1 0 -1 -1 -2 -3 -4 -4 -4 -4 -4 -5 -5 -7 -9 -9 -9 -10 -10 -10 -9 -9 -8 -9 -10 -11 -10 -11 -12 -13 -14 -14 -14 -14 -13 -12 -12 -12
3 2 1 1 1 -0 -1 -2 -3 -3 -4 -5 -5 -6 -6 -6 -6 -6 -8 -9 -10 -10 -10 -10 -10 -10 -9 -9 -10 -11 -11 -11 -13 -14 -15 -15 -15 -14 -14 -14 -14 -14 -14
2 1 1 0 -0 -1 -2 -3 -4 -5 -6 -6 -7 -7 -6 -6 -6 -7 -9 -10 -9 -9 -10 -10 -10 -9 -10 -11 -11 -12 -12 -13 -15 -15 -15 -15 -15 -15 -15 -15 -15 -15 -14
1 0 -0 -1 -2 -3 -3 -4 -5 -6 -7 -8 -9 -9 -8 -8 -8 -9 -9 -9 -10 -10 -10 -10 -10 -10 -11 -12 -13 -13 -14 -15 -15 -15 -15 -15 -15 -16 -16 -15 -15 -15 -15
0 -1 -2 -2 -3 -4 -5 -5 -6 -6 -7 -7 -7 -8 -9 -9 -9 -9 -10 -11 -11 -10 -10 -11 -11 -12 -12 -12 -13 -14 -15 -15 -16 -16 -16 -16 -16 -16 -16 -16 -16 -15 -15
-1 -3 -4 -4 -5 -7 -7 -8 -9 -10 -10 -9 -9 -10 -10 -10 -11 -10 -10 -9 -9 -9 -9 -11 -11 -12 -13 -13 -15 -15 -16 -16 -16 -16 -16 -17 -17 -17 -17 -16 -16 -15 -15
-4 -4 -5 -6 -7 -8 -10 -10 -10 -10 -10 -9 -9 -9 -9 -9 -9 -9 -9 -9 -9 -9 -10 -11 -12 -13 -14 -14 -15 -16 -16 -16 -17 -17 -17 -18 -18 -18 -17 -17 -16 -15 -15
-7 -8 -8 -8 -9 -10 -10 -11 -11 -11 -12 -11 -11 -12 -12 -12 -11 -11 -10 -10 -10 -10 -12 -13 -13 -14 -15 -15 -16 -17 -17 -17 -18 -18 -18 -18 -18 -18 -18 -17 -17 -16 -16
-9 -10 -10 -11 -11 -11 -12 -12 -12 -13 -13 -14 -14 -14 -14 -14 -14 -13 -12 -12 -12 -12 -12 -14 -13 -14 -15 -16 -17 -17 -18 -18 -18 -19 -19 -19 -18 -18 -18 -17 -17 -17 -16
-11 -12 -12 -12 -13 -13 -13 -14 -15 -15 -16 -16 -16 -16 -16 -16 -17 -16 -16 -16 -15 -15 -15 -15 -15 -15 -16 -17 -17 -18 -18 -18 -18 -19 -19 -19 -18 -19 -19 -18 -18 -16 -16
-13 -13 -13 -14 -14 -15 -16 -16 -17 -17 -17 -18 -18 -18 -17 -16 -16 -17 -17 -17 -17 -17 -17 -17 -17 -17 -18 -18 -18 -19 -19 -19 -19 -19 -19 -19 -19 -19 -18 -18 -18 -17 -17
-15 -15 -15 -16 -17 -17 -18 -18 -18 -19 -19 -19 -19 -19 -19 -19 -19 -19 -19 -18 -18 -17 -18 -18 -18 -19 -19 -19 -19 -19 -19 -19 -19 -19 -20 -19 -19 -18 -18 -17 -17 -17 -17
-16 -17 -18 -18 -18 -18 -18 -18 -19 -20 -20 -20 -21 -21 -21 -21 -21 -21 -20 -20 -19 -19 -19 -19 -19 -19 -19 -19 -19 -19 -20 -19 -19 -20 -20 -19 -18 -18 -17 -17 -17 -17 -17
-17 -18 -18 -19 -19 -20 -20 -20 -21 -21 -21 -21 -21 -21 -21 -21 -21 -21 -21 -21 -20 -20 -20 -20 -20 -20 -20 -19 -19 -19 -19 -19 -19 -19 -20 -19 -18 -17 -17 -17 -16 -16 -16
-18 -19 -19 -19 -20 -20 -21 -21 -21 -21 -21 -21 -21 -21 -21 -21 -21 -21 -21 -21 -21 -21 -21 -20 -20 -20 -20 -20 -19 -19 -19 -19 -19 -19 -19 -19 -18 -17 -17 -17 -16 -16 -16
-20 -20 -20 -20 -20 -21 -21 -21 -21 -21 -21 -21 -21 -22 -22 -22 -22 -21 -21 -21 -21 -21 -21 -21 -21 -20 -20 -20 -19 -19 -19 -19 -18 -18 -18 -19 -18 -18 -17 -16 -16 -16 -16